Orbital Elements at Epoch 2459200.5 (2020-Dec-17.0) TDB
Reference: JPL 27 (heliocentric ecliptic J2000)
Element | Value | Uncertainty (1-sigma) | Units |
e | .08259537980424196 | 3.5861e-08 | |
a | 2.549255160989267 | 1.0165e-08 | au |
q | 2.338698462749435 | 9.1738e-08 | au |
i | 4.584991701136151 | 3.9597e-06 | deg |
node | 108.5026035934151 | 4.7311e-05 | deg |
peri | 171.6671754575246 | 5.7339e-05 | deg |
M | 207.97166649551 | 3.5616e-05 | deg |
tp | 2459828.327625974944 (2022-Sep-05.82762598) | 0.0001489 | TDB |
period | 1486.683042173218 4.07 | 8.8925e-06 2.435e-08 | d yr |
n | .2421497991083263 | 1.4484e-09 | deg/d |
Q | 2.7598118592291 | 1.1005e-08 | au |
|
| | Orbit Determination Parameters
Additional Information
|